Port-of-Spain, Trinidad And Tobago

8:52 PM AST on February 23, 2017 (GMT -0400)
Piarco International

Weather History for TTPP - February, 2014

Change the Weather History Date:

Friday, February 28, 2014

  Actual Average Record
Temperature  
Mean Temperature 82 °F -  
Max Temperature 91 °F 87 °F 91 °F (2014)
Min Temperature 74 °F 71 °F 64 °F (2001)
Cooling Degree Days 18    
Growing Degree Days 32 (Base 50)    
Moisture  
Dew Point 70 °F    
Average Humidity 70    
Maximum Humidity 89    
Minimum Humidity 37    
Precipitation  
Precipitation 0.00 in 0.05 in - ()
Sea Level Pressure  
Sea Level Pressure 29.93 in    
Wind  
Wind Speed 5 mph ()    
Max Wind Speed 16 mph    
Max Gust Speed -    
Visibility 6.8 miles    
Events      
Averages and records for this station are not official NWS values.
T = Trace of Precipitation, MM = Missing Value Source: Averaged Metar Reports

Daily Weather History Graph

Daily Weather History Graph

Search for Another Location

Airport or City:

Trip Planner

Search our weather history database for the weather conditions in past years. The results will help you decide how hot, cold, wet, or windy it might be!

Date:

Astronomy

Feb. 28, 2014 Rise Set
Actual Time 6:20 AM AST 6:15 PM AST
Civil Twilight 5:59 AM AST 6:36 PM AST
Nautical Twilight 5:34 AM AST 7:01 PM AST
Astronomical Twilight 5:10 AM AST 7:25 PM AST
Moon 5:29 AM AST (2/28) 5:44 PM AST (2/28)
Length of Visible Light 12h 37m
Length of Day
11h 54m
Waning Crescent, 1% of the Moon is Illuminated
Feb 28
Waning Crescent
Mar 1
New
Mar 8
First Quarter
Mar 16
Full
Mar 23
Last Quarter

Hourly Weather History & Observations

Time (AST) Temp. Heat Index Dew Point Humidity Pressure Visibility Wind Dir Wind Speed Gust Speed Precip Events Conditions
12:00 AM 77.0 °F - 71.6 °F 83% 29.95 in 6.2 mi ESE 5.8 mph - N/A   Partly Cloudy
1:00 AM 75.2 °F - 71.6 °F 89% 29.92 in 6.2 mi ESE 3.5 mph - N/A   Partly Cloudy
2:00 AM 76 °F - 71 °F 82% 29.92 in 10 mi East 3.5 mph - -   Widespread Dust
2:00 AM 75.2 °F - 71.6 °F 89% 29.92 in 6.2 mi East 3.5 mph - N/A   Partly Cloudy
3:00 AM 75.2 °F - 71.6 °F 89% 29.89 in 6.2 mi Calm Calm - N/A   Partly Cloudy
4:00 AM 75.2 °F - 71.6 °F 89% 29.89 in 6.2 mi Calm Calm - N/A   Partly Cloudy
5:00 AM 75 °F - 71 °F 84% 29.90 in 9 mi Calm Calm - -   Widespread Dust
5:00 AM 75.2 °F - 71.6 °F 89% 29.89 in 6.2 mi Calm Calm - N/A   Partly Cloudy
6:00 AM 75.2 °F - 71.6 °F 89% 29.92 in 6.2 mi Calm Calm - N/A   Partly Cloudy
7:00 AM 75.2 °F - 71.6 °F 89% 29.95 in 6.2 mi Calm Calm - N/A   Partly Cloudy
8:00 AM 82 °F - 72 °F 64% 29.96 in 6 mi East 9.2 mph - -   Widespread Dust
8:00 AM 82.4 °F 87.2 °F 71.6 °F 70% 29.95 in 6.2 mi East 9.2 mph - N/A   Partly Cloudy
9:00 AM 84.2 °F 89.6 °F 71.6 °F 66% 29.98 in 6.2 mi ESE 12.7 mph - N/A   Scattered Clouds
10:00 AM 87.8 °F 92.6 °F 69.8 °F 55% 29.98 in 6.2 mi East 15.0 mph - N/A   Scattered Clouds
11:00 AM 89 °F - 66 °F 37% 29.99 in 9 mi ESE 15.0 mph - -   Widespread Dust
11:00 AM 89.6 °F 92.2 °F 66.2 °F 46% 29.98 in 6.2 mi ESE 15.0 mph - N/A   Partly Cloudy
12:00 PM 89.6 °F 93.4 °F 68.0 °F 49% 29.95 in 6.2 mi ESE 15.0 mph - N/A   Partly Cloudy
1:00 PM 91.4 °F 95.4 °F 68.0 °F 46% 29.95 in 6.2 mi East 16.1 mph - N/A   Partly Cloudy
2:00 PM 87 °F - 68 °F 43% 29.93 in 9 mi ESE 11.5 mph - -   Partly Cloudy
2:00 PM 87.8 °F 91.4 °F 68.0 °F 52% 29.92 in 6.2 mi ESE 11.5 mph - N/A   Scattered Clouds
3:00 PM 86.0 °F 89.4 °F 68.0 °F 55% 29.89 in 6.2 mi ESE 13.8 mph - N/A   Partly Cloudy
4:00 PM 87.8 °F 90.4 °F 66.2 °F 49% 29.89 in 6.2 mi ESE 13.8 mph - N/A   Partly Cloudy
5:00 PM 85 °F - 68 °F 47% 29.89 in 9 mi East 13.8 mph - -   Scattered Clouds
5:00 PM 86.0 °F 89.4 °F 68.0 °F 55% 29.89 in 6.2 mi East 13.8 mph - N/A   Partly Cloudy
6:00 PM 82.4 °F 86.3 °F 69.8 °F 66% 29.89 in 6.2 mi ESE 9.2 mph - N/A   Partly Cloudy
7:00 PM 78.8 °F - 69.8 °F 74% 29.89 in 6.2 mi East 6.9 mph - N/A   Partly Cloudy
8:00 PM 78 °F - 71 °F 74% 29.92 in 7 mi Calm Calm - -   Widespread Dust
8:00 PM 77.0 °F - 71.6 °F 83% 29.92 in 6.2 mi Calm Calm - N/A   Partly Cloudy
9:00 PM 77.0 °F - 71.6 °F 83% 29.92 in 6.2 mi Calm Calm - N/A   Partly Cloudy
10:00 PM 77.0 °F - 71.6 °F 83% 29.92 in 6.2 mi Calm Calm - N/A   Partly Cloudy
11:00 PM 76 °F - 71 °F 82% 29.94 in 9 mi Calm Calm - -   Mostly Cloudy
11:00 PM 77.0 °F - 71.6 °F 83% 29.92 in 6.2 mi Calm Calm - N/A   Scattered Clouds